Regional Weather Roundup
Issued by NWS Huntsville, AL

Home | Current Version | Previous Version | Text Only | Print | Product List | Glossary On
Versions: 1 2 3 4 5 6 7 8 9 10 11 12 13 14 15 16 17 18 19 20 21 22 23 24 25 26 27
000
ASUS44 KHUN 231310
RWRHUN

WEATHER ROUNDUP FOR THE TENNESSEE VALLEY
NATIONAL WEATHER SERVICE HUNTSVILLE AL
800 AM CDT TUE APR 23 2024

ALZ001>004-231400-
NORTHWEST ALABAMA

CITY           SKY/WX    TMP DP  RH WIND       PRES   REMARKS
SHOALS AIRPORT SUNNY     52  41  66 CALM      30.18S
$$

ALZ005>007-016-231400-
NORTH CENTRAL ALABAMA

CITY           SKY/WX    TMP DP  RH WIND       PRES   REMARKS
CULLMAN AG STN   N/A     37 N/A N/A CALM        N/A
DECATUR AP     SUNNY     53  44  71 SE5       30.20S
HUNTSVILLE AP  MOSUNNY   50  44  80 SE6       30.19S
MERIDIANVILLE  SUNNY     49  39  67 CALM      30.20S
VINEMONT AP    SUNNY     52  43  71 S5        30.21S
$$

ALZ008>010-231400-
NORTHEAST ALABAMA

CITY           SKY/WX    TMP DP  RH WIND       PRES   REMARKS
ALBERTVILLE    SUNNY     50  41  71 CALM      30.21S
FORT PAYNE     SUNNY     43  39  88 CALM      30.21F
$$

TNZ076-096-097-231400-
SOUTHEASTERN MIDDLE TENNESSEE

CITY           SKY/WX    TMP DP  RH WIND       PRES   REMARKS
TULLAHOMA      SUNNY     50  41  71 CALM      30.17S
WINCHESTER     SUNNY     52  39  62 SE3       30.19S
$$

...SURROUNDING SITES...

CITY           SKY/WX    TMP DP  RH WIND       PRES   REMARKS
ATLANTA        MOSUNNY   55  41  59 SW8       30.24R
ANNISTON       SUNNY     48  43  82 CALM      30.24R
BIRMINGHAM     MOSUNNY   52  41  66 CALM      30.25R
CHATTANOOGA    MOSUNNY   47  40  76 CALM      30.22R
CORINTH        SUNNY     48  43  81 SE5       30.17R
DALTON         SUNNY     44  42  93 CALM      30.23R
GADSDEN        SUNNY     45  42  89 CALM      30.25R
GOLDEN TRNGL   SUNNY     49  46  90 CALM      30.20R
HALEYVILLE     SUNNY     51  42  71 S6        30.21S
JACKSON TN     SUNNY     54  41  61 S8        30.13S
LEWISBURG      SUNNY     54  41  62 S6        30.16S
MEMPHIS        MOSUNNY   55  42  61 S8        30.12R
MURFREESBORO   SUNNY     50  39  66 VRB5      30.15F
NASHVILLE      MOSUNNY   52  38  58 S8        30.16F
OXFORD MS      SUNNY     50  39  66 S7        30.17S
ROME           SUNNY     44  39  82 CALM      30.23R
SAVANNAH       SUNNY     50  48  93 S6        30.14S
SELMER         SUNNY     52  41  66 CALM      30.15R
TUPELO         SUNNY     50  44  80 S6        30.17S
TUSCALOOSA     SUNNY     49  46  90 CALM      30.22R
$$




USA.gov is the U.S. government's official web portal to all federal, state and local government web resources and services.